Regional Weather Roundup
Issued by NWS

Home | Current Version | Previous Version | Graphics & Text | Print | Product List | Glossary On
Versions: 1 2 3 4 5 6 7 8 9 10 11 12 13 14 15 16 17 18 19 20 21 22 23 24 25 26 27 28 29 30 31 32 33 34 35 36 37 38 39 40 41 42 43 44 45 46 47 48 49 50
000
ASUS43 KLOT 161903
RWRIL

ILLINOIS REGIONAL WEATHER ROUNDUP
NATIONAL WEATHER SERVICE CHICAGO/ROMEOVILLE IL
200 PM CDT WED AUG 16 2017

NOTE: "FAIR" INDICATES FEW OR NO CLOUDS BELOW 12,000 FEET WITH NO
SIGNIFICANT WEATHER AND/OR OBSTRUCTIONS TO VISIBILITY.

* THESE STATIONS ARE NOT UNDER NWS QUALITY CONTROL. THEY ALSO MAY NOT
  REPORT WEATHER SUCH AS PRECIPITATION OR FOG.

ILZ001-002-007-009-015-016-024-162000-
NORTHWEST ILLINOIS

CITY           SKY/WX    TMP DP  RH WIND       PRES   REMARKS
MOLINE         CLOUDY    81  71  71 S13G21    29.87F HX  85
STERLING*      LGT RAIN  80  74  81 SE8       29.91F HX  85
SAVANNA*       PTSUNNY   82  70  66 SE12      29.88F HX  86
$$

ILZ003-004-008-010-011-017-018-162000-
NORTH CENTRAL ILLINOIS

CITY           SKY/WX    TMP DP  RH WIND       PRES   REMARKS
ROCKFORD       PTSUNNY   91  70  49 S18       29.93F HX  96
FREEPORT*      MOSUNNY   84  71  64 SE12      29.93F HX  89
ROCHELLE*      MOSUNNY   83  71  68 SE10      29.93F HX  88
PERU*          CLOUDY    81  71  73 SE9       29.92F HX  84
$$

ILZ005-006-012>014-019>023-162000-
NORTHEAST ILLINOIS

CITY           SKY/WX    TMP DP  RH WIND       PRES   REMARKS
CHICAGO-OHARE  PTSUNNY   87  68  52 E8        29.94F HX  90
CHICAGO-MIDWAY MOSUNNY   88  69  53 VRB7      29.94F HX  92
AURORA         MOSUNNY   88  69  53 SE14      29.94F HX  92
LANSING*       PTSUNNY   87  65  48 S12       29.96S HX  89
JOLIET*        PTSUNNY   86  71  60 S9        29.94F HX  92
WAUKEGAN       SUNNY     77  69  76 E9        29.97F
DUPAGE AIRPORT MOSUNNY   88  69  53 S12G20    29.94F HX  92
WHEELING       SUNNY     84  70  62 NE7       29.97F HX  88
MORRIS*        CLOUDY    84  71  64 SE10G16   29.93F HX  88
NORTHERLY ISL    N/A     78  68  71 NE5         N/A  HX  80
$$

LMZ740>746-162000-
SOUTHERN LAKE MICHIGAN

STATION/POSITION SKY/WX   TEMP    WIND        PRES    VSBY  WAVE
                          AIR SEA DIR/SP/G                  HT/PER
                          (F)     (DEG/KT/KT) (MB)    (MI)  (FT/S)
SOUTHERN BUOY              72 72   70/  6/  8 1015.7          1
WILMETTE HARBOR            73 74   80/  8/ 10   N/A           1/ 3
HARRISON CRIB              75      80/ 10/ 11   N/A
CALUMET HARBOR             76      50/ 10/ 11 1014.2F
BURNS HARBOR               78      30/  8/ 11 1014.9F
MICHIGAN CITY              79     360/  9/ 12   N/A
MICHIGAN CITY 6N           77 76   50/  6/  8   N/A           1/ 4
ST. JOSEPH                 76 76   50/  8/ 10 1014.8F         1/ 3
$$

ILZ025>027-034>036-040-047-049-050-058-095>099-162000-
WEST-CENTRAL ILLINOIS

CITY           SKY/WX    TMP DP  RH WIND       PRES   REMARKS
QUINCY         CLOUDY    81  71  71 S12       29.89F HX  85
GALESBURG*     CLOUDY    78  72  81 S12G17    29.91F HX  80
MACOMB*        CLOUDY    83  73  73 S12       29.91F HX  88
JACKSONVILLE*  MOSUNNY   81  75  84 SE9       29.91F HX  86
PITTSFIELD*    PTSUNNY   80  75  84 S7        29.92F HX  85
$$

ILZ028>032-037-038-041>044-048-051>054-059>061-162000-
CENTRAL ILLINOIS

CITY           SKY/WX    TMP DP  RH WIND       PRES   REMARKS
PONTIAC        CLOUDY    83  74  75 S8        29.95F HX  90
BLOOMINGTON    CLOUDY    79  73  82 S17       29.96F HX  82
DECATUR        CLOUDY    78  74  87 S9        29.97F HX  81
PEORIA         CLOUDY    84  74  71 S15G23    29.92F HX  91
LACON*         CLOUDY    83  74  73 S15       29.91F HX  90
LINCOLN*       CLOUDY    80  74  83 S9        29.94F HX  84
SPRINGFIELD    CLOUDY    81  77  88 SE8       29.94F HX  88
TAYLORVILLE    CLOUDY    79  72  78 S8G16     29.96F HX  83
$$

ILZ033-039-045-046-055>057-062-063-162000-
EAST-CENTRAL ILLINOIS

CITY           SKY/WX    TMP DP  RH WIND       PRES   REMARKS
CHAMPAIGN      RAIN      78  74  87 S9        29.98F FOG     HX  81
RANTOUL*       CLOUDY    85  74  68 S10G18    29.97F HX  92
MATTOON        RAIN      76  76 100 S8        29.99S FOG
PARIS*         CLOUDY    82  74  76 S9        30.01R HX  88
$$

ILZ079-100>102-162000-
SOUTHWEST ILLINOIS

CITY           SKY/WX    TMP DP  RH WIND       PRES   REMARKS
ALTON          PTSUNNY   88  75  66 S13       29.92F HX  97
BELLEVILLE     CLOUDY    89  76  66 SW10      29.93F HX  99
CAHOKIA*       MOSUNNY   90  75  61 S8        29.91F HX 100
SPARTA*        CLOUDY    87  77  72 S12       29.96F HX  97
$$

ILZ064>066-069>071-074>076-080>082-084>086-088>090-092>094-162000-
SOUTH-CENTRAL ILLINOIS

CITY           SKY/WX    TMP DP  RH WIND       PRES   REMARKS
CARBONDALE     CLOUDY    86  77  74 S12       29.94F HX  97
CAIRO*         MOSUNNY   87  78  74 S10       29.95F HX 101
EFFINGHAM*     LGT RAIN  76  76 100 E8        29.99F
MARION         PTSUNNY   88  79  74 SW12      29.96F HX 102
MT. VERNON     CLOUDY    86  78  77 S9        29.96F HX  98
CENTRALIA*     CLOUDY    87  78  76 S7        29.95F HX 100
SALEM*         PTSUNNY   85  76  74 SE7       29.96F HX  94
METROPOLIS*    CLOUDY    89  78  70 SW7       29.96F HX 104
$$

ILZ067-068-072-073-078-083-087-091-162000-
SOUTHEAST ILLINOIS

CITY           SKY/WX    TMP DP  RH WIND       PRES   REMARKS
LAWRENCEVILLE  CLOUDY    83  74  74 S7        30.00S HX  89
FLORA*         CLOUDY    83  75  77 SE8       29.98F HX  91
FAIRFIELD*     CLOUDY    82  75  80 SE3       29.97F HX  89
HARRISBURG*    CLOUDY    88  79  75 S3        29.96F HX 102
ROBINSON*      CLOUDY    82  75  77 S6        30.00S HX  89
CARMI*         CLOUDY    83  78  83 S5        29.97F HX  93
$$

ABBREVIATIONS USED IN REMARKS
   TC - TEMPERATURE IN CELSIUS
  WCI - WIND CHILL INDEX
   HX - HEAT INDEX
  VSB - VISIBILITY
$$




USA.gov is the U.S. government's official web portal to all federal, state and local government web resources and services.